星链-5626 (STARLINK-5626 )

导读

STARLINK-5626是美国太空探索技术公司 SpaceX 星链星座的成员,于2023年1月31日发射升空,属于低轨卫星,承担全球宽带互联网通信服务任务,依托星链组网优势,可为全球偏远地区、移动载体提供稳定互联网接入,是星链大规模组网部署中的一颗典型卫星。

基本信息
目录编号:
55435
目录名称:
STARLINK-5626
国际标识:
2023-014AW
轨道中心:
EARTH
卫星名称:
星链-5626
卫星全名:
星链-5626 (STARLINK-5626 )
卫星状态:
在轨 (已飞行1312 天)
发射日期:
2023-01-31 UTC
国别 :
美国 (US)
星等 :
--
轨道信息
数据来源 国际轨道数据 AOE轨道数据
星历时间 2026-09-03T23:12:00+0800
22小时前
查看轨道信息
2026-09-03T07:00:00+0800
1天前
查看轨道信息
半长轴 6950.188km 6950.184km
偏心率 0.0003088 0.0003132
轨道倾角 70.001° 70.000°
近地点辐角 270.463° 274.379°
升交点赤经 15.770° 17.470°
平近点角 89.617° 45.786°
近地点 569.904km 569.87km
远地点 574.198km 574.224km
周期 96.107分钟 96.107分钟
每日圈数 14.983319 14.983331
详细信息
固有亮度:
5
最大亮度:
2.5
卫星平台:
Starlink v1.5
覆盖范围:
全球
运营商:
太空探索技术公司
运营商所在国:
美国
制造商(研发单位):
太空探索技术公司
制造商所在国:
美国
使用方式:
暂无
卫星简介
星链(Starlink)计划是由太空探索技术公司(SpaceX)提出的一个巨型低轨卫星互联网星座项目,计划在2019年至2024年间在太空搭建由约1.2万颗卫星组成的“星链”网络,其中1584颗将部署在地球上空550千米处的近地轨道,并从2020年开始工作。该卫星仍在工作。
2D轨道图
3D轨道图
轨道高度分析图
轨道倾角分析图
轨道综合分析图
查看轨道综合分析图
交会数据列表
事件ID 空间交会对象 最接近时刻(TCA) 交会距离 交会风险概率(CRP) 交会风险指数(CRI) 操作
CDM_260905-112105-543506-682021
2026-09-05T
11:21:58+0000
2.621 km
极远距离
1.634487E-6 低风险 0.39